SXGBO LCLK-OSDI

Flight info

Callsign SXGBO
Flight time 0h 41m
Altitude 15000
Route REXAL DCT DESPO DCT KUKLA DCT KAD DCT DAKWE DCT DAM
Aircraft A320/M-V/N

Departure

Time 2026-04-25 14:31
Airport Larnaca International Airport (LCLK)

Arrival

Time 2026-04-25 15:12
Airport Damascus International Airport (OSDI)
Time Latitude Longitude Altitude Speed Heading
2026-04-25 14:03 34.86735 33.60701 21 ft 0 kts 225°
2026-04-25 14:17 34.86743 33.60710 20 ft 2 kts 225°
2026-04-25 14:17 34.86755 33.60725 21 ft 2 kts 225°
2026-04-25 14:17 34.86766 33.60740 22 ft 3 kts 219°
2026-04-25 14:17 34.86782 33.60750 22 ft 3 kts 183°
2026-04-25 14:18 34.86799 33.60750 22 ft 3 kts 172°
2026-04-25 14:18 34.86816 33.60746 23 ft 3 kts 150°
2026-04-25 14:18 34.86820 33.60743 22 ft 0 kts 144°
2026-04-25 14:24 34.86816 33.60747 23 ft 2 kts 144°
2026-04-25 14:24 34.86794 33.60766 20 ft 5 kts 144°
2026-04-25 14:25 34.86763 33.60808 20 ft 8 kts 130°
2026-04-25 14:25 34.86717 33.60871 20 ft 12 kts 135°
2026-04-25 14:25 34.86654 33.60948 21 ft 14 kts 114°
2026-04-25 14:25 34.86651 33.60989 21 ft 15 kts 88°
2026-04-25 14:26 34.86527 33.61027 21 ft 15 kts 177°
2026-04-25 14:26 34.86478 33.61094 21 ft 0 kts 91°
2026-04-25 14:28 34.86484 33.61145 22 ft 13 kts 76°
2026-04-25 14:29 34.86476 33.61280 24 ft 20 kts 59°
2026-04-25 14:29 34.86544 33.61379 21 ft 0 kts 46°
2026-04-25 14:30 34.86695 33.61566 22 ft 70 kts 44°
2026-04-25 14:30 34.87207 33.62188 22 ft 135 kts 45°
2026-04-25 14:31 34.87984 33.63133 215 ft 171 kts 45°
2026-04-25 14:31 34.88835 33.64156 1001 ft 172 kts 46°
2026-04-25 14:31 34.89674 33.65179 1858 ft 172 kts 44°
2026-04-25 14:31 34.90565 33.66254 2247 ft 194 kts 44°
2026-04-25 14:32 34.91518 33.67567 2650 ft 221 kts 60°
2026-04-25 14:32 34.91786 33.69502 3118 ft 251 kts 99°
2026-04-25 14:32 34.91386 33.70868 3572 ft 263 kts 116°
2026-04-25 14:32 34.90382 33.72770 4540 ft 270 kts 126°
2026-04-25 14:33 34.89230 33.74592 5534 ft 274 kts 128°
2026-04-25 14:33 34.88052 33.76450 6488 ft 279 kts 128°
2026-04-25 14:33 34.86895 33.78374 7405 ft 284 kts 127°
2026-04-25 14:33 34.85766 33.80368 8350 ft 288 kts 126°
2026-04-25 14:34 34.84661 33.82418 9289 ft 291 kts 124°
2026-04-25 14:34 34.83565 33.84510 10153 ft 297 kts 124°
2026-04-25 14:34 34.82419 33.86721 10487 ft 320 kts 124°
2026-04-25 14:34 34.81202 33.89079 10728 ft 344 kts 124°
2026-04-25 14:35 34.79901 33.91609 11163 ft 358 kts 123°
2026-04-25 14:35 34.78758 33.94356 11849 ft 367 kts 113°
2026-04-25 14:35 34.77950 33.97338 12569 ft 373 kts 110°
2026-04-25 14:35 34.77151 34.00357 13277 ft 378 kts 110°
2026-04-25 14:36 34.76339 34.03385 13946 ft 383 kts 110°
2026-04-25 14:36 34.75427 34.06439 14558 ft 385 kts 116°
2026-04-25 14:36 34.74167 34.09313 14825 ft 384 kts 126°
2026-04-25 14:36 34.72539 34.11909 14903 ft 393 kts 135°
2026-04-25 14:37 34.70536 34.14229 14905 ft 398 kts 144°
2026-04-25 14:37 34.68332 34.16289 14913 ft 399 kts 145°
2026-04-25 14:37 34.66159 34.18312 14915 ft 399 kts 145°
2026-04-25 14:37 34.63958 34.20365 14912 ft 399 kts 145°
2026-04-25 14:38 34.61757 34.22418 14903 ft 399 kts 145°
2026-04-25 14:38 34.59555 34.24475 14912 ft 399 kts 145°
2026-04-25 14:38 34.57354 34.26528 14914 ft 399 kts 145°
2026-04-25 14:38 34.55148 34.28585 14910 ft 399 kts 145°
2026-04-25 14:39 34.52945 34.30635 14913 ft 399 kts 145°
2026-04-25 14:39 34.50740 34.32683 14910 ft 399 kts 145°
2026-04-25 14:39 34.48535 34.34730 14911 ft 399 kts 145°
2026-04-25 14:39 34.46341 34.36804 14919 ft 400 kts 142°
2026-04-25 14:40 34.44365 34.39208 14911 ft 404 kts 133°
2026-04-25 14:40 34.42727 34.41934 14924 ft 406 kts 126°
2026-04-25 14:40 34.41152 34.44773 14925 ft 405 kts 127°
2026-04-25 14:40 34.39570 34.47608 14920 ft 405 kts 127°
2026-04-25 14:41 34.37990 34.50429 14923 ft 405 kts 127°
2026-04-25 14:41 34.36407 34.53254 14922 ft 405 kts 127°
2026-04-25 14:41 34.34824 34.56074 14923 ft 405 kts 127°
2026-04-25 14:41 34.33238 34.58897 14921 ft 405 kts 127°
2026-04-25 14:42 34.31658 34.61715 14919 ft 405 kts 127°
2026-04-25 14:42 34.30613 34.63578 14921 ft 404 kts 127°
2026-04-25 14:42 34.28519 34.67312 14922 ft 404 kts 127°
2026-04-25 14:42 34.26942 34.70116 14922 ft 403 kts 127°
2026-04-25 14:43 34.25361 34.72922 14922 ft 403 kts 127°
2026-04-25 14:43 34.23785 34.75717 14928 ft 403 kts 128°
2026-04-25 14:43 34.22181 34.78505 14924 ft 402 kts 128°
2026-04-25 14:43 34.20569 34.81260 14929 ft 401 kts 129°
2026-04-25 14:44 34.18949 34.84008 14926 ft 401 kts 129°
2026-04-25 14:44 34.17329 34.86747 14924 ft 400 kts 129°
2026-04-25 14:44 34.15712 34.89482 14923 ft 400 kts 129°
2026-04-25 14:44 34.14117 34.92183 14923 ft 400 kts 129°
2026-04-25 14:45 34.13028 34.94031 14922 ft 399 kts 129°
2026-04-25 14:45 34.10898 34.97656 14918 ft 399 kts 129°
2026-04-25 14:45 34.09292 35.00393 14920 ft 399 kts 129°
2026-04-25 14:45 34.07687 35.03121 14918 ft 399 kts 129°
2026-04-25 14:46 34.06077 35.05854 14918 ft 399 kts 129°
2026-04-25 14:46 34.04469 35.08579 14916 ft 399 kts 129°
2026-04-25 14:46 34.02881 35.11273 14916 ft 399 kts 129°
2026-04-25 14:46 34.01274 35.14001 14913 ft 399 kts 129°
2026-04-25 14:47 33.99670 35.16721 14914 ft 398 kts 129°
2026-04-25 14:47 33.98582 35.18564 14912 ft 398 kts 129°
2026-04-25 14:47 33.96451 35.22164 14911 ft 398 kts 129°
2026-04-25 14:47 33.94838 35.24889 14910 ft 398 kts 129°
2026-04-25 14:48 33.93228 35.27603 14911 ft 399 kts 129°
2026-04-25 14:48 33.91615 35.30319 14906 ft 399 kts 129°
2026-04-25 14:48 33.89998 35.33034 14908 ft 399 kts 129°
2026-04-25 14:48 33.88374 35.35760 14911 ft 399 kts 129°
2026-04-25 14:49 33.86759 35.38475 14911 ft 399 kts 129°
2026-04-25 14:49 33.85144 35.41195 14910 ft 399 kts 129°
2026-04-25 14:49 33.83527 35.43916 14911 ft 399 kts 129°
2026-04-25 14:49 33.81910 35.46632 14913 ft 398 kts 129°
2026-04-25 14:50 33.80488 35.49401 14902 ft 380 kts 121°
2026-04-25 14:50 33.79396 35.52247 14575 ft 371 kts 117°
2026-04-25 14:50 33.78378 35.55033 14430 ft 356 kts 117°
2026-04-25 14:50 33.77408 35.57710 14281 ft 343 kts 117°
2026-04-25 14:51 33.76481 35.60265 14149 ft 331 kts 118°
2026-04-25 14:51 33.75569 35.62766 14004 ft 322 kts 118°
2026-04-25 14:51 33.74676 35.65195 13868 ft 313 kts 118°
2026-04-25 14:51 33.73808 35.67548 13722 ft 303 kts 118°
2026-04-25 14:52 33.72961 35.69840 13564 ft 295 kts 118°
2026-04-25 14:52 33.72138 35.72067 13408 ft 288 kts 118°
2026-04-25 14:52 33.71346 35.74219 13224 ft 283 kts 118°
2026-04-25 14:52 33.70810 35.75676 13065 ft 279 kts 118°
2026-04-25 14:53 33.69776 35.78479 12750 ft 274 kts 118°
2026-04-25 14:53 33.69006 35.80563 12521 ft 271 kts 118°
2026-04-25 14:53 33.68243 35.82624 12291 ft 269 kts 118°
2026-04-25 14:53 33.67483 35.84674 12067 ft 268 kts 117°
2026-04-25 14:54 33.66733 35.86696 11841 ft 267 kts 117°
2026-04-25 14:54 33.65981 35.88728 11614 ft 266 kts 117°
2026-04-25 14:54 33.65229 35.90751 11387 ft 265 kts 118°
2026-04-25 14:54 33.64368 35.92696 11173 ft 262 kts 124°
2026-04-25 14:55 33.63413 35.94561 10954 ft 262 kts 124°
2026-04-25 14:55 33.62462 35.96422 10731 ft 261 kts 124°
2026-04-25 14:55 33.61514 35.98281 10522 ft 261 kts 124°
2026-04-25 14:55 33.60567 36.00135 10306 ft 260 kts 124°
2026-04-25 14:56 33.59660 36.01909 10103 ft 260 kts 124°
2026-04-25 14:56 33.58703 36.03780 9887 ft 259 kts 124°
2026-04-25 14:56 33.57761 36.05615 9663 ft 257 kts 124°
2026-04-25 14:56 33.56845 36.07397 9463 ft 252 kts 124°
2026-04-25 14:57 33.55936 36.09170 9283 ft 247 kts 124°
2026-04-25 14:57 33.55047 36.10902 9105 ft 241 kts 124°
2026-04-25 14:57 33.54178 36.12592 8922 ft 235 kts 124°
2026-04-25 14:57 33.53335 36.14236 8746 ft 227 kts 123°
2026-04-25 14:58 33.52520 36.15824 8569 ft 220 kts 124°
2026-04-25 14:58 33.51730 36.17359 8392 ft 214 kts 124°
2026-04-25 14:58 33.50953 36.18866 8219 ft 212 kts 124°
2026-04-25 14:58 33.50183 36.20359 8046 ft 210 kts 123°
2026-04-25 14:59 33.49416 36.21846 7869 ft 209 kts 124°
2026-04-25 14:59 33.48652 36.23327 7702 ft 209 kts 124°
2026-04-25 14:59 33.47902 36.24785 7571 ft 201 kts 123°
2026-04-25 14:59 33.47178 36.26190 7405 ft 196 kts 123°
2026-04-25 15:00 33.46464 36.27570 7230 ft 194 kts 123°
2026-04-25 15:00 33.45754 36.28942 7055 ft 193 kts 123°
2026-04-25 15:00 33.45047 36.30306 6888 ft 192 kts 123°
2026-04-25 15:00 33.44360 36.31639 6716 ft 186 kts 122°
2026-04-25 15:01 33.43699 36.32923 6550 ft 175 kts 122°
2026-04-25 15:01 33.43073 36.34136 6381 ft 168 kts 122°
2026-04-25 15:01 33.42462 36.35321 6216 ft 166 kts 122°
2026-04-25 15:01 33.41854 36.36495 6043 ft 165 kts 122°
2026-04-25 15:02 33.41247 36.37665 5871 ft 165 kts 122°
2026-04-25 15:02 33.40644 36.38828 5729 ft 164 kts 121°
2026-04-25 15:02 33.40049 36.39980 5602 ft 163 kts 121°
2026-04-25 15:02 33.39412 36.41101 5497 ft 163 kts 129°
2026-04-25 15:03 33.38584 36.42029 5401 ft 164 kts 142°
2026-04-25 15:03 33.37585 36.42696 5301 ft 166 kts 156°
2026-04-25 15:03 33.36469 36.43057 5210 ft 167 kts 170°
2026-04-25 15:03 33.35307 36.43083 5065 ft 168 kts 184°
2026-04-25 15:04 33.34166 36.42762 4967 ft 172 kts 197°
2026-04-25 15:04 33.33114 36.42110 4880 ft 173 kts 212°
2026-04-25 15:04 33.32111 36.41321 4810 ft 172 kts 203°
2026-04-25 15:04 33.31006 36.40771 4740 ft 172 kts 197°
2026-04-25 15:05 33.29886 36.40276 4705 ft 171 kts 197°
2026-04-25 15:05 33.28785 36.39798 4646 ft 164 kts 196°
2026-04-25 15:05 33.27720 36.39332 4566 ft 162 kts 197°
2026-04-25 15:06 33.25602 36.38383 4480 ft 163 kts 202°
2026-04-25 15:06 33.24820 36.37437 4429 ft 166 kts 248°
2026-04-25 15:06 33.24834 36.36093 4405 ft 165 kts 297°
2026-04-25 15:06 33.25631 36.35198 4376 ft 158 kts 346°
2026-04-25 15:07 33.26660 36.35304 4353 ft 148 kts 34°
2026-04-25 15:07 33.27447 36.36083 4335 ft 147 kts 47°
2026-04-25 15:07 33.28162 36.36940 4316 ft 140 kts 48°
2026-04-25 15:07 33.28839 36.37764 4301 ft 137 kts 48°
2026-04-25 15:08 33.29493 36.38562 4269 ft 137 kts 48°
2026-04-25 15:08 33.30156 36.39380 4252 ft 137 kts 49°
2026-04-25 15:08 33.30831 36.40195 4110 ft 137 kts 49°
2026-04-25 15:08 33.31504 36.41003 4024 ft 137 kts 48°
2026-04-25 15:09 33.32185 36.41802 4012 ft 137 kts 45°
2026-04-25 15:09 33.32889 36.42592 3953 ft 141 kts 46°
2026-04-25 15:09 33.34333 36.44122 3235 ft 136 kts 44°
2026-04-25 15:10 33.34784 36.44629 3001 ft 135 kts 46°
2026-04-25 15:10 33.35615 36.45712 2668 ft 133 kts 49°
2026-04-25 15:10 33.36817 36.47394 2379 ft 133 kts 43°
2026-04-25 15:11 33.37460 36.48201 2271 ft 134 kts 44°
2026-04-25 15:11 33.38067 36.49031 2145 ft 132 kts 45°
2026-04-25 15:11 33.38680 36.49850 2015 ft 131 kts 46°
2026-04-25 15:12 33.39537 36.51012 2014 ft 63 kts 47°
2026-04-25 15:12 33.39802 36.51352 2015 ft 33 kts 38°
2026-04-25 15:12 33.39959 36.51429 2015 ft 11 kts 20°
2026-04-25 15:12 33.39984 36.51440 2017 ft 12 kts 20°
2026-04-25 15:13 33.40137 36.51507 2015 ft 16 kts 20°
2026-04-25 15:13 33.40369 36.51644 2014 ft 21 kts 43°
2026-04-25 15:13 33.40459 36.51760 2017 ft 20 kts 47°
2026-04-25 15:14 33.40557 36.51890 2017 ft 22 kts 48°
2026-04-25 15:14 33.40673 36.51970 2014 ft 19 kts 325°
2026-04-25 15:14 33.40790 36.51887 2017 ft 20 kts 309°
2026-04-25 15:14 33.40866 36.51736 2014 ft 22 kts 313°
2026-04-25 15:15 33.41001 36.51750 2015 ft 20 kts 11°
2026-04-25 15:15 33.41114 36.51677 2017 ft 20 kts 323°
2026-04-25 15:15 33.41226 36.51577 2017 ft 14 kts 313°
2026-04-25 15:15 33.41262 36.51516 2015 ft 4 kts 238°
2026-04-25 15:16 33.41242 36.51481 2017 ft 6 kts 232°
2026-04-25 15:16 33.41213 36.51436 2016 ft 0 kts 233°